Tracking 19212 objects as of 16-Jul-2018
HD Live streaming from Space Station
objects crossing your sky now

FENGYUN 1C DEB

Track FENGYUN 1C DEB now!
10-day predictions


NORAD ID: 31626
Int'l Code: 1999-025CAG
Perigee: 778.5 km
Apogee: 822.2 km
Inclination: 101.3 °
Period: 100.7 minutes
Semi major axis: 7171 km
RCS: 0.0152 m2 (small)
Launch date: May 10, 1999
Source: People's Republic of China (PRC)
Launch site: Taiyaun Space Center, China (TSC)

Note: This is SATELLITE DEBRIS
aabbcc
Your satellite tracking list
Your tracking list is empty




NASA's NSSDC Master Catalog

Two Line Element Set (TLE):
1 31626U 99025CAG 18197.11422857  .00001111  00000-0  45880-3 0  9991
2 31626 101.3056 303.2871 0030497 214.2876 145.6328 14.29560402581908
Source of the keplerian elements: AFSPC